UAE371 VVDN-VTBS

Flight info

Callsign UAE371
Flight time 1h 23m
Altitude 30000
Route PAPRA2A PAPRA A1 UBL Y20 GRASO Y13 RUKSA EASTE1C
Aircraft B77W/H-SDE1E2E3FGHIJ2J3J4J5M1RWXY/LB1D1

Departure

Time 2026-04-18 03:34
Airport Da Nang International Airport (VVDN)

Arrival

Time 2026-04-18 04:58
Airport Suvarnabhumi Airport (VTBS)
Time Latitude Longitude Altitude Speed Heading
2026-04-18 02:56 16.05489 108.20146 54 ft 0 kts 81°
2026-04-18 03:19 16.05488 108.20137 54 ft 2 kts 81°
2026-04-18 03:20 16.05486 108.20122 54 ft 2 kts 81°
2026-04-18 03:20 16.05485 108.20118 54 ft 2 kts 81°
2026-04-18 03:20 16.05484 108.20110 54 ft 2 kts 72°
2026-04-18 03:21 16.05477 108.20096 55 ft 2 kts 47°
2026-04-18 03:21 16.05465 108.20086 55 ft 2 kts 27°
2026-04-18 03:21 16.05451 108.20081 55 ft 2 kts
2026-04-18 03:21 16.05436 108.20081 55 ft 2 kts 349°
2026-04-18 03:22 16.05421 108.20084 56 ft 2 kts 349°
2026-04-18 03:22 16.05407 108.20086 56 ft 2 kts 351°
2026-04-18 03:22 16.05392 108.20088 56 ft 2 kts 352°
2026-04-18 03:22 16.05377 108.20091 56 ft 2 kts 351°
2026-04-18 03:23 16.05362 108.20093 57 ft 1 kts 351°
2026-04-18 03:23 16.05361 108.20094 57 ft 0 kts 351°
2026-04-18 03:25 16.05369 108.20092 56 ft 3 kts 351°
2026-04-18 03:25 16.05397 108.20073 56 ft 4 kts 291°
2026-04-18 03:25 16.05391 108.20050 56 ft 2 kts 223°
2026-04-18 03:25 16.05383 108.20046 56 ft 0 kts 201°
2026-04-18 03:26 16.05364 108.20042 57 ft 5 kts 184°
2026-04-18 03:26 16.05299 108.20047 57 ft 12 kts 171°
2026-04-18 03:26 16.05203 108.20062 57 ft 14 kts 171°
2026-04-18 03:26 16.05097 108.20078 57 ft 16 kts 172°
2026-04-18 03:27 16.04985 108.20094 58 ft 15 kts 172°
2026-04-18 03:27 16.04883 108.20109 60 ft 14 kts 172°
2026-04-18 03:27 16.04781 108.20123 61 ft 15 kts 172°
2026-04-18 03:27 16.04671 108.20139 61 ft 16 kts 172°
2026-04-18 03:28 16.04551 108.20156 61 ft 17 kts 172°
2026-04-18 03:28 16.04424 108.20174 61 ft 18 kts 172°
2026-04-18 03:28 16.04295 108.20193 61 ft 17 kts 172°
2026-04-18 03:28 16.04174 108.20210 61 ft 16 kts 172°
2026-04-18 03:29 16.04061 108.20228 62 ft 15 kts 171°
2026-04-18 03:29 16.03956 108.20243 63 ft 14 kts 171°
2026-04-18 03:29 16.03856 108.20259 64 ft 14 kts 172°
2026-04-18 03:29 16.03748 108.20274 62 ft 16 kts 172°
2026-04-18 03:30 16.03625 108.20293 61 ft 18 kts 172°
2026-04-18 03:30 16.03496 108.20310 61 ft 18 kts 172°
2026-04-18 03:30 16.03372 108.20328 61 ft 16 kts 172°
2026-04-18 03:30 16.03264 108.20344 62 ft 13 kts 172°
2026-04-18 03:31 16.03178 108.20355 64 ft 11 kts 173°
2026-04-18 03:31 16.03107 108.20365 64 ft 10 kts 172°
2026-04-18 03:31 16.03034 108.20375 64 ft 10 kts 172°
2026-04-18 03:31 16.02964 108.20381 64 ft 8 kts 193°
2026-04-18 03:32 16.02931 108.20330 64 ft 9 kts 259°
2026-04-18 03:32 16.02923 108.20274 64 ft 4 kts 287°
2026-04-18 03:32 16.02953 108.20250 65 ft 6 kts 338°
2026-04-18 03:32 16.02994 108.20240 65 ft 0 kts 351°
2026-04-18 03:33 16.03040 108.20233 65 ft 31 kts 351°
2026-04-18 03:33 16.03508 108.20167 62 ft 103 kts 352°
2026-04-18 03:34 16.04450 108.20030 62 ft 165 kts 352°
2026-04-18 03:34 16.05746 108.19842 231 ft 201 kts 353°
2026-04-18 03:34 16.07143 108.19639 964 ft 207 kts 353°
2026-04-18 03:34 16.08542 108.19421 1769 ft 206 kts 353°
2026-04-18 03:35 16.09988 108.19190 2294 ft 215 kts 353°
2026-04-18 03:35 16.11509 108.18950 2807 ft 226 kts 353°
2026-04-18 03:35 16.13129 108.18701 3216 ft 243 kts 353°
2026-04-18 03:35 16.14869 108.18434 3695 ft 260 kts 352°
2026-04-18 03:36 16.16686 108.18154 4367 ft 268 kts 352°
2026-04-18 03:36 16.18548 108.18046 5149 ft 269 kts 10°
2026-04-18 03:36 16.20293 108.18764 5851 ft 273 kts 37°
2026-04-18 03:36 16.21514 108.20239 6563 ft 276 kts 64°
2026-04-18 03:37 16.22079 108.21960 7175 ft 279 kts 74°
2026-04-18 03:38 16.22109 108.22075 7215 ft 279 kts 74°
2026-04-18 03:38 16.22602 108.24038 7992 ft 281 kts 74°
2026-04-18 03:38 16.23082 108.25978 8743 ft 282 kts 73°
2026-04-18 03:39 16.23516 108.27986 9453 ft 286 kts 83°
2026-04-18 03:39 16.23285 108.30041 10071 ft 297 kts 107°
2026-04-18 03:39 16.22200 108.31943 10445 ft 318 kts 132°
2026-04-18 03:39 16.20312 108.33242 10723 ft 340 kts 160°
2026-04-18 03:40 16.17888 108.33528 11008 ft 359 kts 188°
2026-04-18 03:40 16.15519 108.32666 11315 ft 374 kts 213°
2026-04-18 03:40 16.13518 108.30845 11862 ft 382 kts 230°
2026-04-18 03:40 16.11863 108.28710 12771 ft 381 kts 233°
2026-04-18 03:41 16.10242 108.26524 13705 ft 381 kts 233°
2026-04-18 03:41 16.08632 108.24348 14528 ft 385 kts 233°
2026-04-18 03:41 16.06979 108.22115 15342 ft 389 kts 233°
2026-04-18 03:41 16.05531 108.19747 16152 ft 391 kts 244°
2026-04-18 03:42 16.04536 108.17137 16956 ft 393 kts 253°
2026-04-18 03:42 16.03755 108.14405 17751 ft 396 kts 254°
2026-04-18 03:42 16.02984 108.11643 18500 ft 400 kts 254°
2026-04-18 03:42 16.02208 108.08862 19225 ft 404 kts 254°
2026-04-18 03:43 16.01430 108.06078 19959 ft 407 kts 254°
2026-04-18 03:43 16.00638 108.03251 20646 ft 412 kts 254°
2026-04-18 03:43 15.99829 108.00362 21300 ft 417 kts 254°
2026-04-18 03:43 15.99017 107.97465 21997 ft 420 kts 254°
2026-04-18 03:44 15.98198 107.94546 22631 ft 424 kts 255°
2026-04-18 03:44 15.97366 107.91582 23235 ft 428 kts 254°
2026-04-18 03:44 15.96534 107.88622 23871 ft 431 kts 254°
2026-04-18 03:44 15.95706 107.85619 24535 ft 433 kts 255°
2026-04-18 03:45 15.94881 107.82583 25183 ft 436 kts 255°
2026-04-18 03:45 15.94053 107.79537 25800 ft 439 kts 255°
2026-04-18 03:45 15.93220 107.76474 26390 ft 442 kts 254°
2026-04-18 03:45 15.92385 107.73411 26969 ft 445 kts 254°
2026-04-18 03:46 15.91536 107.70297 27567 ft 448 kts 254°
2026-04-18 03:46 15.90686 107.67185 28175 ft 449 kts 254°
2026-04-18 03:46 15.89825 107.64065 28746 ft 452 kts 253°
2026-04-18 03:46 15.88928 107.60934 29300 ft 455 kts 253°
2026-04-18 03:47 15.88028 107.57804 29872 ft 455 kts 253°
2026-04-18 03:47 15.87129 107.54678 30018 ft 455 kts 254°
2026-04-18 03:47 15.85333 107.48430 30034 ft 450 kts 254°
2026-04-18 03:48 15.83544 107.42206 30055 ft 452 kts 254°
2026-04-18 03:48 15.81735 107.35916 30074 ft 450 kts 254°
2026-04-18 03:49 15.79945 107.29702 30099 ft 451 kts 253°
2026-04-18 03:49 15.78148 107.23467 30120 ft 449 kts 253°
2026-04-18 03:50 15.76361 107.17252 30118 ft 449 kts 255°
2026-04-18 03:50 15.74990 107.10912 30121 ft 449 kts 258°
2026-04-18 03:51 15.73662 107.04597 30122 ft 449 kts 258°
2026-04-18 03:51 15.72310 106.98262 30120 ft 449 kts 258°
2026-04-18 03:52 15.70950 106.91936 30087 ft 449 kts 257°
2026-04-18 03:52 15.69574 106.85574 30051 ft 451 kts 257°
2026-04-18 03:53 15.68199 106.79236 30007 ft 449 kts 257°
2026-04-18 03:53 15.66822 106.72904 29960 ft 450 kts 257°
2026-04-18 03:54 15.65450 106.66603 29962 ft 450 kts 257°
2026-04-18 03:54 15.64073 106.60294 29971 ft 450 kts 257°
2026-04-18 03:55 15.62693 106.53982 29981 ft 449 kts 257°
2026-04-18 03:55 15.61314 106.47680 29994 ft 449 kts 257°
2026-04-18 03:56 15.59930 106.41366 29987 ft 450 kts 257°
2026-04-18 03:56 15.58536 106.35015 29984 ft 451 kts 257°
2026-04-18 03:57 15.56453 106.25545 29990 ft 451 kts 257°
2026-04-18 03:58 15.55050 106.19178 29985 ft 452 kts 257°
2026-04-18 03:58 15.53658 106.12868 29977 ft 451 kts 257°
2026-04-18 03:59 15.52253 106.06509 29968 ft 451 kts 257°
2026-04-18 03:59 15.50854 106.00187 29959 ft 450 kts 257°
2026-04-18 04:00 15.49460 105.93896 29948 ft 451 kts 257°
2026-04-18 04:00 15.48051 105.87549 29941 ft 451 kts 257°
2026-04-18 04:01 15.46644 105.81217 29930 ft 453 kts 257°
2026-04-18 04:01 15.45227 105.74848 29919 ft 453 kts 257°
2026-04-18 04:02 15.43821 105.68539 29910 ft 452 kts 257°
2026-04-18 04:02 15.42404 105.62189 29912 ft 452 kts 257°
2026-04-18 04:03 15.40952 105.55829 29911 ft 452 kts 256°
2026-04-18 04:03 15.39461 105.49527 29911 ft 452 kts 256°
2026-04-18 04:04 15.37960 105.43179 29904 ft 452 kts 256°
2026-04-18 04:04 15.36470 105.36877 29901 ft 452 kts 257°
2026-04-18 04:05 15.34980 105.30580 29904 ft 452 kts 256°
2026-04-18 04:05 15.33485 105.24268 29899 ft 453 kts 256°
2026-04-18 04:06 15.31985 105.17946 29898 ft 453 kts 256°
2026-04-18 04:06 15.30484 105.11626 29904 ft 453 kts 256°
2026-04-18 04:07 15.28976 105.05285 29904 ft 453 kts 256°
2026-04-18 04:07 15.27472 104.98965 29907 ft 452 kts 256°
2026-04-18 04:08 15.25970 104.92666 29907 ft 451 kts 256°
2026-04-18 04:08 15.24553 104.86345 29904 ft 451 kts 262°
2026-04-18 04:09 15.23963 104.79917 29907 ft 452 kts 265°
2026-04-18 04:09 15.23437 104.73431 29904 ft 452 kts 265°
2026-04-18 04:10 15.22910 104.66981 29904 ft 453 kts 265°
2026-04-18 04:10 15.22374 104.60471 29902 ft 452 kts 265°
2026-04-18 04:11 15.21839 104.53995 29898 ft 453 kts 265°
2026-04-18 04:11 15.21300 104.47502 29895 ft 452 kts 265°
2026-04-18 04:12 15.20763 104.41060 29895 ft 452 kts 265°
2026-04-18 04:12 15.20220 104.34559 29887 ft 452 kts 265°
2026-04-18 04:13 15.19679 104.28117 29881 ft 451 kts 265°
2026-04-18 04:13 15.19135 104.21664 29879 ft 452 kts 265°
2026-04-18 04:14 15.18589 104.15199 29873 ft 452 kts 265°
2026-04-18 04:14 15.18038 104.08714 29876 ft 452 kts 265°
2026-04-18 04:15 15.17489 104.02260 29876 ft 452 kts 265°
2026-04-18 04:15 15.16936 103.95785 29879 ft 452 kts 265°
2026-04-18 04:16 15.16381 103.89310 29880 ft 452 kts 265°
2026-04-18 04:16 15.15827 103.82873 29882 ft 452 kts 265°
2026-04-18 04:17 15.14727 103.76475 29878 ft 452 kts 253°
2026-04-18 04:17 15.12758 103.70310 29879 ft 453 kts 252°
2026-04-18 04:18 15.10759 103.64127 29880 ft 453 kts 252°
2026-04-18 04:18 15.08773 103.57989 29891 ft 452 kts 252°
2026-04-18 04:19 15.06771 103.51808 29898 ft 452 kts 252°
2026-04-18 04:19 15.04779 103.45662 29904 ft 454 kts 252°
2026-04-18 04:20 15.02772 103.39473 29905 ft 453 kts 252°
2026-04-18 04:20 15.00771 103.33312 29910 ft 453 kts 252°
2026-04-18 04:21 14.98765 103.27140 29919 ft 453 kts 252°
2026-04-18 04:21 14.96761 103.20984 29905 ft 453 kts 252°
2026-04-18 04:22 14.94752 103.14816 29901 ft 453 kts 252°
2026-04-18 04:22 14.92736 103.08632 29893 ft 453 kts 252°
2026-04-18 04:23 14.90736 103.02504 29892 ft 454 kts 252°
2026-04-18 04:23 14.88711 102.96306 29899 ft 453 kts 252°
2026-04-18 04:24 14.86700 102.90155 29903 ft 453 kts 252°
2026-04-18 04:24 14.84794 102.83991 29901 ft 453 kts 254°
2026-04-18 04:25 14.82897 102.77769 29902 ft 453 kts 254°
2026-04-18 04:25 14.80997 102.71561 29892 ft 453 kts 254°
2026-04-18 04:26 14.79098 102.65370 29891 ft 453 kts 254°
2026-04-18 04:26 14.77201 102.59196 29889 ft 454 kts 254°
2026-04-18 04:27 14.75284 102.52967 29894 ft 454 kts 254°
2026-04-18 04:27 14.73375 102.46770 29892 ft 454 kts 254°
2026-04-18 04:28 14.71466 102.40578 29897 ft 454 kts 254°
2026-04-18 04:28 14.69545 102.34359 29898 ft 455 kts 253°
2026-04-18 04:29 14.67613 102.28105 29899 ft 454 kts 253°
2026-04-18 04:29 14.65678 102.21852 29896 ft 454 kts 253°
2026-04-18 04:30 14.63764 102.15674 29897 ft 454 kts 253°
2026-04-18 04:30 14.61848 102.09492 29898 ft 454 kts 253°
2026-04-18 04:31 14.59915 102.03264 29900 ft 455 kts 253°
2026-04-18 04:31 14.58001 101.97108 29737 ft 445 kts 253°
2026-04-18 04:31 14.57055 101.94065 29254 ft 441 kts 254°
2026-04-18 04:32 14.56120 101.91074 28707 ft 438 kts 252°
2026-04-18 04:32 14.55012 101.88197 28224 ft 435 kts 249°
2026-04-18 04:32 14.53833 101.85326 27731 ft 431 kts 249°
2026-04-18 04:32 14.52677 101.82503 27246 ft 428 kts 249°
2026-04-18 04:33 14.51524 101.79668 26765 ft 433 kts 249°
2026-04-18 04:33 14.50352 101.76774 26258 ft 442 kts 249°
2026-04-18 04:33 14.49175 101.73858 25741 ft 441 kts 249°
2026-04-18 04:33 14.48012 101.70975 25232 ft 437 kts 249°
2026-04-18 04:34 14.46853 101.68095 24722 ft 434 kts 249°
2026-04-18 04:34 14.45697 101.65224 24215 ft 430 kts 249°
2026-04-18 04:34 14.44564 101.62405 23714 ft 427 kts 249°
2026-04-18 04:34 14.43432 101.59589 23196 ft 424 kts 249°
2026-04-18 04:35 14.42310 101.56799 22691 ft 421 kts 249°
2026-04-18 04:35 14.41194 101.54024 22186 ft 418 kts 249°
2026-04-18 04:35 14.40088 101.51276 21679 ft 415 kts 249°
2026-04-18 04:35 14.38979 101.48519 21168 ft 412 kts 249°
2026-04-18 04:36 14.37885 101.45798 20656 ft 410 kts 249°
2026-04-18 04:36 14.36809 101.43124 20150 ft 407 kts 248°
2026-04-18 04:36 14.35729 101.40443 19645 ft 404 kts 249°
2026-04-18 04:36 14.34658 101.37785 19138 ft 402 kts 248°
2026-04-18 04:37 14.33583 101.35116 18633 ft 399 kts 248°
2026-04-18 04:37 14.32517 101.32469 18119 ft 397 kts 248°
2026-04-18 04:37 14.31275 101.29969 17842 ft 387 kts 237°
2026-04-18 04:37 14.29628 101.27817 17703 ft 376 kts 226°
2026-04-18 04:38 14.27709 101.26002 17386 ft 373 kts 221°
2026-04-18 04:38 14.25740 101.24265 17040 ft 372 kts 220°
2026-04-18 04:38 14.23782 101.22561 16723 ft 369 kts 220°
2026-04-18 04:38 14.21806 101.20856 16400 ft 366 kts 220°
2026-04-18 04:39 14.19858 101.19183 16075 ft 361 kts 220°
2026-04-18 04:39 14.17942 101.17544 15772 ft 356 kts 220°
2026-04-18 04:39 14.16042 101.15921 15473 ft 350 kts 220°
2026-04-18 04:39 14.14189 101.14340 15175 ft 345 kts 219°
2026-04-18 04:40 14.12354 101.12778 14882 ft 340 kts 219°
2026-04-18 04:40 14.10543 101.11237 14596 ft 335 kts 219°
2026-04-18 04:40 14.08748 101.09710 14316 ft 330 kts 219°
2026-04-18 04:40 14.07005 101.08231 14033 ft 325 kts 218°
2026-04-18 04:41 14.05046 101.07102 13747 ft 318 kts 199°
2026-04-18 04:41 14.02945 101.06421 13448 ft 314 kts 195°
2026-04-18 04:41 14.00856 101.05843 13150 ft 311 kts 194°
2026-04-18 04:41 13.98757 101.05271 12854 ft 309 kts 194°
2026-04-18 04:42 13.96678 101.04703 12558 ft 309 kts 194°
2026-04-18 04:42 13.94595 101.04132 12313 ft 307 kts 194°
2026-04-18 04:42 13.92518 101.03562 12057 ft 308 kts 194°
2026-04-18 04:42 13.90435 101.02991 11773 ft 308 kts 193°
2026-04-18 04:43 13.88385 101.02428 11487 ft 307 kts 193°
2026-04-18 04:43 13.86309 101.01859 11191 ft 306 kts 193°
2026-04-18 04:43 13.84297 101.01139 10884 ft 306 kts 209°
2026-04-18 04:43 13.82704 100.99717 10589 ft 307 kts 234°
2026-04-18 04:44 13.81808 100.97742 10287 ft 308 kts 259°
2026-04-18 04:44 13.81759 100.95552 9973 ft 302 kts 279°
2026-04-18 04:44 13.82170 100.93459 9632 ft 301 kts 287°
2026-04-18 04:44 13.83080 100.91554 9272 ft 294 kts 313°
2026-04-18 04:45 13.84646 100.90269 8933 ft 284 kts 339°
2026-04-18 04:45 13.86518 100.89835 8644 ft 276 kts
2026-04-18 04:45 13.88427 100.90097 8390 ft 275 kts 14°
2026-04-18 04:45 13.90280 100.90548 8130 ft 273 kts 17°
2026-04-18 04:46 13.92111 100.91040 7870 ft 271 kts 17°
2026-04-18 04:46 13.93939 100.91541 7597 ft 269 kts 17°
2026-04-18 04:46 13.95758 100.92041 7323 ft 269 kts 17°
2026-04-18 04:46 13.97561 100.92537 7065 ft 268 kts 17°
2026-04-18 04:47 13.99373 100.93034 6799 ft 267 kts 16°
2026-04-18 04:47 14.01174 100.93517 6558 ft 264 kts 15°
2026-04-18 04:47 14.02931 100.93973 6457 ft 254 kts 16°
2026-04-18 04:47 14.04638 100.94420 6442 ft 249 kts 16°
2026-04-18 04:48 14.06304 100.94804 6422 ft 241 kts
2026-04-18 04:48 14.07928 100.94553 6394 ft 238 kts 337°
2026-04-18 04:48 14.09272 100.93546 6379 ft 241 kts 309°
2026-04-18 04:48 14.10006 100.92030 6353 ft 233 kts 281°
2026-04-18 04:49 14.09987 100.90407 6331 ft 223 kts 253°
2026-04-18 04:49 14.09301 100.89003 6320 ft 219 kts 227°
2026-04-18 04:49 14.08135 100.88048 6309 ft 216 kts 206°
2026-04-18 04:49 14.06779 100.87327 6181 ft 218 kts 205°
2026-04-18 04:50 14.05424 100.86623 5950 ft 216 kts 205°
2026-04-18 04:50 14.04078 100.85923 5692 ft 213 kts 205°
2026-04-18 04:50 14.02765 100.85241 5593 ft 212 kts 205°
2026-04-18 04:50 14.01417 100.84610 5513 ft 212 kts 196°
2026-04-18 04:51 13.99977 100.84166 5295 ft 216 kts 194°
2026-04-18 04:51 13.98528 100.83769 5000 ft 215 kts 193°
2026-04-18 04:51 13.97080 100.83385 4723 ft 213 kts 193°
2026-04-18 04:51 13.95640 100.83007 4449 ft 211 kts 193°
2026-04-18 04:52 13.94220 100.82637 4185 ft 208 kts 193°
2026-04-18 04:52 13.92822 100.82275 3978 ft 202 kts 193°
2026-04-18 04:52 13.91457 100.81922 3960 ft 204 kts 193°
2026-04-18 04:52 13.90062 100.81559 3923 ft 205 kts 193°
2026-04-18 04:53 13.88660 100.81196 3660 ft 206 kts 193°
2026-04-18 04:53 13.87271 100.80836 3404 ft 204 kts 193°
2026-04-18 04:53 13.85902 100.80479 3152 ft 201 kts 193°
2026-04-18 04:53 13.84552 100.80124 2902 ft 198 kts 193°
2026-04-18 04:54 13.83238 100.79779 2653 ft 185 kts 193°
2026-04-18 04:54 13.82010 100.79458 2432 ft 178 kts 193°
2026-04-18 04:54 13.80832 100.79149 2212 ft 168 kts 193°
2026-04-18 04:54 13.79740 100.78863 2007 ft 158 kts 193°
2026-04-18 04:55 13.78665 100.78581 1807 ft 157 kts 193°
2026-04-18 04:55 13.77611 100.78306 1620 ft 152 kts 193°
2026-04-18 04:55 13.76577 100.78036 1414 ft 153 kts 193°
2026-04-18 04:56 13.74493 100.77491 1019 ft 153 kts 194°
2026-04-18 04:56 13.73462 100.77216 820 ft 152 kts 194°
2026-04-18 04:56 13.72419 100.76945 610 ft 153 kts 194°
2026-04-18 04:56 13.71378 100.76679 422 ft 152 kts 194°
2026-04-18 04:57 13.70363 100.76414 247 ft 148 kts 193°
2026-04-18 04:57 13.69373 100.76160 78 ft 144 kts 194°
2026-04-18 04:57 13.68434 100.75908 15 ft 128 kts 195°
2026-04-18 04:57 13.67709 100.75717 14 ft 84 kts 194°
2026-04-18 04:58 13.67300 100.75612 14 ft 34 kts 195°
2026-04-18 04:58 13.67159 100.75521 14 ft 22 kts 226°
2026-04-18 04:58 13.67115 100.75420 14 ft 11 kts 295°
2026-04-18 04:58 13.67186 100.75401 14 ft 11 kts 18°
2026-04-18 04:59 13.67260 100.75422 14 ft 10 kts 15°
2026-04-18 04:59 13.67334 100.75442 14 ft 13 kts 14°
2026-04-18 04:59 13.67448 100.75472 14 ft 19 kts 14°
2026-04-18 04:59 13.67597 100.75511 14 ft 24 kts 14°
2026-04-18 05:00 13.67776 100.75558 14 ft 26 kts 14°
2026-04-18 05:00 13.67951 100.75603 14 ft 24 kts 15°
2026-04-18 05:00 13.68111 100.75646 14 ft 22 kts 14°
2026-04-18 05:00 13.68254 100.75684 14 ft 14 kts 14°
2026-04-18 05:01 13.68323 100.75643 14 ft 11 kts 288°
2026-04-18 05:01 13.68343 100.75564 14 ft 10 kts 284°
2026-04-18 05:01 13.68361 100.75490 14 ft 12 kts 284°
2026-04-18 05:01 13.68388 100.75382 14 ft 17 kts 284°
2026-04-18 05:02 13.68422 100.75242 14 ft 22 kts 284°
2026-04-18 05:02 13.68445 100.75120 14 ft 12 kts 257°
2026-04-18 05:02 13.68383 100.75076 14 ft 8 kts 214°
2026-04-18 05:02 13.68374 100.75021 14 ft 8 kts 281°
2026-04-18 05:03 13.68386 100.74966 14 ft 7 kts 284°
2026-04-18 05:03 13.68398 100.74917 14 ft 6 kts 279°
2026-04-18 05:03 13.68387 100.74893 14 ft 3 kts 212°
2026-04-18 05:03 13.68366 100.74886 14 ft 3 kts 197°
2026-04-18 05:04 13.68334 100.74876 14 ft 5 kts 194°
2026-04-18 05:04 13.68321 100.74873 14 ft 0 kts 194°